Satellite-Ground Cal/Val Site Overpasses Predictions

Prediction of Satellite NPP Overpassing Cal/Val Site: Antarctic Dome C

Ground Cal/Val Site Location: Latitude: -75.10, Longitude: 123.35; Satellite-Ground Site NADIR distance within 100 km.

Table of predicted overpasses for the next 14.0 days since TLE Epoch: 1/16/2013
Interval Starting Time Ending Time Minimum Distance Time Minimum Distance (km)
1 01/18/2013 14:52:39 01/18/2013 14:53:08 01/18/2013 14:52:54 19.92
2 01/19/2013 14:33:58 01/19/2013 14:34:12 01/19/2013 14:34:05 87.18
3 01/20/2013 07:35:29 01/20/2013 07:35:57 01/20/2013 07:35:43 31.99
4 01/21/2013 07:16:44 01/21/2013 07:17:02 01/21/2013 07:16:53 78.30
5 01/23/2013 14:58:58 01/23/2013 14:59:22 01/23/2013 14:59:10 56.53
6 01/24/2013 14:40:08 01/24/2013 14:40:33 01/24/2013 14:40:20 52.45
7 01/25/2013 07:41:49 01/25/2013 07:42:10 01/25/2013 07:41:59 67.16
8 01/26/2013 07:22:56 01/26/2013 07:23:23 01/26/2013 07:23:10 40.98
9 01/28/2013 15:05:23 01/28/2013 15:05:32 01/28/2013 15:05:27 94.20
